Regional Weather Roundup
Issued by NWS Upton, NY

Current Version | Previous Version | Text Only | Print | Product List | Glossary On
Versions: 1 2 3 4 5 6 7 8 9 10 11 12 13 14 15 16 17 18 19 20 21 22 23 24 25 26 27
000 ASUS41 KOKX 260008 RWROKX REGIONAL WEATHER ROUNDUP NATIONAL WEATHER SERVICE NEW YORK NY 800 PM EDT SAT MAR 25 2017 NOTE: "FAIR" INDICATES FEW OR NO CLOUDS BELOW 12,000 FEET WITH NO SIGNIFICANT WEATHER AND/OR OBSTRUCTIONS TO VISIBILITY. NYZ071-072-176-178-NJZ106-104-260100- NEW YORK CITY METRO AREA CITY SKY/WX TMP DP RH WIND PRES REMARKS Central Park CLOUDY 47 41 80 N9 30.34R Wall St Helipt CLOUDY 46 39 76 CALM 30.33R LaGuardia APRT CLOUDY 48 40 73 NE15 30.32R Kennedy INTL CLOUDY 45 41 86 E10 30.33R Breezy Point N/A 43 N/A N/A E9 N/A Newark/Liberty CLOUDY 47 40 76 VRB5 30.31R Teterboro DRIZZLE 45 40 82 N12G23 30.32R $$ NYZ177-179-078>081-260100- LONG ISLAND NEW YORK CITY SKY/WX TMP DP RH WIND PRES REMARKS Jones Beach N/A 41 N/A N/A E12 N/A Matinecock PT NOT AVBL Farmingdale MOCLDY 44 39 82 E7 30.34R MacArthur/ISP CLOUDY 43 39 86 N14G20 30.33R Shirley MOCLDY 43 39 86 VRB7 30.35R Westhampton CLOUDY 43 37 79 NE10 30.35R East Hampton CLOUDY 40 36 84 NE8 30.35R WCI 35 Montauk N/A 41 38 89 NE7 30.37R $$ NYZ052-065-067-260100- HUDSON VALLEY CITY SKY/WX TMP DP RH WIND PRES REMARKS White Plains CLOUDY 43 40 89 N9 30.33R Newburgh MOCLDY 37 36 93 E8 30.35R WCI 31 Montgomery CLOUDY 38 35 89 N5 30.35R WCI 34 Poughkeepsie CLOUDY 36 34 92 N6 30.36R WCI 31 Albany CLOUDY 37 30 75 N7 30.39R WCI 32 $$ NJZ001-105-106-008-010-013-015-019>022-104-260100- NEW JERSEY CITY SKY/WX TMP DP RH WIND PRES REMARKS Newark/Liberty CLOUDY 47 40 76 VRB5 30.31R Teterboro DRIZZLE 45 40 82 N12G23 30.32R Caldwell CLOUDY 43 39 86 NE5 30.33R Somerville CLOUDY 51 40 65 E7 30.28R Linden CLOUDY 45 39 80 CALM 30.32R Sussex CLOUDY 38 36 92 NE9 30.35R WCI 31 Andover N/A 39 36 89 NE9G18 30.33R WCI 33 Trenton CLOUDY 49 41 74 SE10 30.27S Millville CLOUDY 57 46 66 NE20 30.24R Atlantic City CLOUDY 48 42 80 E14 30.27R Wrightstown PTCLDY 45 41 86 NE10 30.27R Toms River PTCLDY 44 42 93 E7 30.31R Belmar CLOUDY 43 39 86 E12 30.31R $$ PAZ047>061-062-071-260100- EASTERN PENNSYLVANIA CITY SKY/WX TMP DP RH WIND PRES REMARKS Philadelphia CLOUDY 50 43 77 E18 30.28R Allentown CLOUDY 52 39 61 NE7 30.27R Scranton CLOUDY 43 42 97 SE5 30.29R $$ CTZ002-004>006-009-010-012-RIZ004-006-007-MAZ004-011-015-260100- SOUTHERN NEW ENGLAND IN CT CITY SKY/WX TMP DP RH WIND PRES REMARKS Bradley INTL CLOUDY 36 33 89 N6 30.36R WCI 31 Hartford CLOUDY 38 35 89 N6 30.37R WCI 33 Danbury CLOUDY 42 40 92 NE5 30.34R Wtrbury/Oxford CLOUDY 37 34 87 NE5 30.34R WCI 34 Bridgeport CLOUDY 44 37 76 NE8 30.35R Meriden CLOUDY 40 35 83 N7 30.35R New Haven CLOUDY 41 38 89 N8 30.35R Chester NOT AVBL Groton CLOUDY 42 37 82 N9 30.34S Wilimantic CLOUDY 40 38 93 N3 30.35R IN RI CITY SKY/WX TMP DP RH WIND PRES REMARKS Providence CLOUDY 40 35 83 N6 30.36R Block Island CLOUDY 39 37 92 NE8 30.37R WCI 33 Westerly CLOUDY 42 38 85 N7 30.36R IN MA CITY SKY/WX TMP DP RH WIND PRES REMARKS Boston MOCLDY 37 34 89 N6 30.36R WCI 32 Worcester PTCLDY 34 31 88 NW6 30.33R WCI 29 Westfield CLOUDY 36 34 92 N6 30.35R WCI 31 Provincetown CLOUDY 36 34 92 N7 30.36R WCI 30 Nantucket CLOUDY 38 33 82 N14 30.34R WCI 30 $$ ANZ330-335-338-340-345-350-353-355-260100- COASTAL MARINE OBSERVATIONS STATION/POSITION TIME SKY/WX TEMP WIND PRES VSBY WAVE AIR SEA DIR/SP/G HT/PER (UTC) (F) (DEG/KT/KT) (MB) (MI) (FT/S) NY HARB ENTRANCE 2250 43 42 80/ 16/ 19 1025.6 4/ 7 20 S FIRE ISLAND 2350 42 40 120/ 16/ 19 1024.6 5/ 7 GREAT SOUTH BAY NOT AVBL 23 SSW MONTAUK P 2350 41 43 1027.2 5/ 8 15 E BARNEGAT LI 2330 43 N/A 5/ 7 HUDSON CANYON 2350 43 45 80/ 19/ 23 1024.8 6/ 7 KINGS POINT 2324 41 39 1026.0 EXECUTION ROCKS NOT AVBL CENTRAL LI SOUND 2315 40 40/ 8/ 10 N/A 1 EASTERN LI SOUND NOT AVBL ROBBINS REEF 2324 45 170/ 7/ 8 1025.9 $$ >>>>>>>>>>>>>>>>>>>>>>>>>>>> KEY <<<<<<<<<<<<<<<<<<<<<<<<<<< > < > SKY/WX - Sky Condition/Present Weather < > TMP - Temperature in Fahrenheit < > DP - Dew Point in Fahrenheit < > RH - Relative Humidity in Percent < > WIND - Direction (from) and Speed in MPH < > PRES - Mean Sea Level Pressure (inches of Hg) < > WCI - Wind Chill Index < > VSB - VISIBILITY IN MILES < > HX - HEAT INDEX < > TC - TEMPERATURE IN CELSIUS < > VRB - VARIABLE WIND DIRECTION < > < >>>>>>>>>>>>>>>>>>>>>>>>>>>> KEY <<<<<<<<<<<<<<<<<<<<<<<<<<<

USA.gov is the U.S. government's official web portal to all federal, state and local government web resources and services.